VELA 9/10 INTERSTAGE

导读

VELA 9/10 INTERSTAGE是美国维拉(Vela)系列核爆炸探测卫星的组成部分,于1969年5月23日发射。维拉卫星系列是美国为监测全球大气层与外层空间核试验而打造的项目,VELA 9/10搭载X射线、γ射线等多类探测仪器,运行在远地近圆轨道,在执行核爆监测任务的同时,还意外为人类发现宇宙伽马射线暴提供了早期观测数据,是冷战时期空间监测的重要节点。

基本信息
目录编号:
60001
目录名称:
VELA 9/10 INTERSTAGE
国际标识:
1969-046G
轨道中心:
EARTH
卫星名称:
VELA 9/10 INTERSTAGE
卫星全名:
VELA 9/10 INTERSTAGE
卫星状态:
在轨 (已飞行20871 天)
发射日期:
1969-05-23 UTC
国别 :
美国 (US)
星等 :
--
轨道信息
数据来源 国际轨道数据
星历时间: 2026-01-28T14:42:45+0800
轨道信息已过期166天
半长轴: 70711.123km
偏心率: 0.8042701
轨道倾角: 17.001°
近地点辐角 266.070°
升交点赤经 38.035°
平近点角 359.964°
近地点: 7462.144km
远地点: 121203.828km
周期: 3118.827分钟
每日圈数: 0.461712
详细信息
使用方式:
暂无
2D轨道图
3D轨道图
轨道高度分析图
轨道倾角分析图
轨道综合分析图
查看轨道综合分析图